Theta_e
296 297 297 298 298 299 299 299 298 298 298 298 298 297 297 297 296 296 295 295 294 294 294 294 294 294 294 293 293 293 292 292 291 291 291 291 291 291 291 291 291 292
295 295 295 296 296 297 297 297 297 297 297 298 297 297 297 297 296 296 295 295 294 294 294 294 294 294 293 293 293 292 292 291 291 291 291 290 290 290 290 290 291 291
293 293 294 294 295 296 296 296 296 296 296 296 297 296 296 296 296 296 295 295 294 294 294 294 293 294 293 293 293 292 292 292 291 291 291 290 290 290 290 290 290 290
292 292 293 293 293 294 294 295 295 295 295 295 295 296 296 296 296 295 295 295 295 294 294 293 293 293 293 293 293 292 292 292 292 291 291 290 290 289 290 290 290 290
291 291 292 292 292 293 293 294 294 294 295 295 295 295 295 295 295 295 295 295 294 294 294 293 293 293 293 292 292 292 292 291 291 291 290 290 290 289 289 289 289 289
291 291 291 291 291 292 292 293 293 293 294 294 294 294 294 294 294 294 294 294 294 294 294 293 293 293 292 292 292 291 291 291 291 291 291 290 289 289 289 289 289 289
291 291 291 291 290 290 291 292 292 292 292 293 293 293 293 293 294 294 294 294 294 294 294 293 293 293 292 292 291 291 291 291 291 290 290 290 289 289 289 288 288 288
289 289 290 291 291 290 290 290 291 291 291 291 292 292 292 292 293 293 293 293 293 293 293 293 293 293 292 292 291 291 291 290 290 290 290 290 289 289 289 288 288 288
289 288 289 289 290 290 290 290 290 290 290 290 291 291 291 292 292 292 292 292 293 293 293 293 293 292 292 292 291 291 290 290 290 290 290 289 289 289 288 288 288 287
288 288 288 288 289 289 290 290 290 290 289 290 290 290 290 291 291 291 291 291 291 292 292 292 292 292 292 292 291 291 290 290 290 290 289 289 289 289 289 288 288 288
287 287 287 287 287 288 289 289 290 290 290 289 289 290 290 290 290 290 290 291 291 291 291 292 292 292 292 292 291 291 291 290 290 289 289 289 289 289 289 288 288 288
287 286 286 286 286 287 287 288 289 289 290 290 289 289 289 289 290 290 290 290 290 290 291 291 291 291 291 291 291 291 291 290 290 289 289 289 288 288 288 288 288 288
287 286 285 285 285 285 286 287 287 288 289 290 290 290 289 289 289 289 289 289 289 289 289 290 290 290 290 290 290 290 290 290 289 289 289 288 288 288 288 288 288 288
287 286 285 285 284 285 285 286 286 287 287 288 289 290 290 289 288 288 288 289 289 289 289 289 289 289 289 289 290 289 289 289 289 288 288 288 288 288 287 288 287 287
287 286 285 284 284 284 284 285 285 285 286 286 287 288 289 289 289 288 288 288 288 288 288 288 288 289 289 289 289 289 289 289 288 288 288 288 287 287 287 287 287 286
286 286 285 284 284 284 284 284 285 285 285 285 285 286 287 288 289 289 288 288 288 288 288 288 288 288 288 288 289 288 288 288 288 288 288 287 287 287 287 286 286 286
286 286 285 284 284 283 283 284 285 285 284 284 284 284 285 286 287 288 288 288 288 288 288 288 288 288 288 288 288 288 288 288 288 288 288 287 287 287 286 286 286 285
285 285 285 285 284 283 283 284 285 285 284 284 284 284 284 284 285 286 287 287 288 288 288 287 287 287 287 287 287 288 288 288 288 288 287 287 287 287 286 286 286 285
284 284 284 284 283 282 283 285 286 285 285 284 283 283 283 283 284 284 285 286 287 287 287 287 287 287 287 287 287 287 287 287 288 288 287 287 287 287 286 286 286 286
283 283 282 282 281 281 282 285 286 285 285 284 284 283 283 283 283 283 284 284 285 286 286 287 287 287 287 286 286 287 287 287 287 287 287 287 287 287 287 286 286 286
282 282 281 280 280 280 282 285 286 286 285 284 284 284 283 283 282 282 283 283 283 284 285 285 286 287 287 286 286 286 287 287 287 287 287 287 287 287 287 286 286 286
281 281 280 279 278 278 280 283 285 285 284 283 283 283 284 283 282 282 282 282 283 283 284 284 285 286 286 287 286 286 287 287 287 288 288 287 287 287 286 286 286 285
280 279 278 278 277 277 279 282 284 283 281 281 282 282 283 283 282 281 281 281 282 282 283 283 284 284 285 286 286 286 286 286 287 287 288 287 287 287 286 286 285 285
279 278 277 277 276 276 278 281 281 280 279 279 280 280 281 281 282 282 281 281 281 282 282 283 283 283 284 285 285 285 285 286 286 287 287 288 287 287 287 286 285 285
278 277 277 276 275 275 277 279 278 277 277 277 277 278 279 279 281 282 282 281 281 281 282 282 282 283 283 284 284 285 285 285 286 286 287 287 287 287 287 286 285 284
277 276 276 275 275 275 276 276 276 275 275 275 275 276 277 278 279 280 281 281 280 281 281 281 282 282 283 283 283 284 284 285 285 286 287 287 287 287 286 285 284 284
Wind_Speed
14 14 14 14 14 14 13 13 14 16 17 18 19 23 27 31 32 34 37 40 42 43 44 44 44 45 47 47 47 48 48 50 51 52 52 52 53 52 51 49 46 43
13 15 16 17 17 16 16 17 18 19 19 19 21 23 26 28 30 32 35 37 40 43 44 45 45 45 45 46 46 46 47 47 48 49 50 50 51 51 51 50 49 46
15 15 15 17 17 19 21 22 22 22 22 22 23 25 26 27 29 30 32 34 37 40 42 44 45 46 46 46 46 46 46 46 48 49 49 49 49 50 51 51 50 49
18 16 15 16 17 18 20 22 23 24 23 24 25 26 27 27 28 29 31 33 34 37 40 42 43 45 46 47 46 46 47 47 48 48 47 48 49 50 50 50 50 49
23 19 16 15 16 17 18 20 22 23 24 26 26 27 27 28 28 29 30 31 33 35 37 39 41 43 44 45 46 46 46 47 47 47 47 47 47 48 48 48 48 48
28 25 21 17 15 15 15 17 19 21 23 26 26 26 27 27 28 29 30 32 33 34 36 37 39 41 42 43 44 44 45 46 47 47 48 47 46 47 47 47 47 47
28 28 25 22 19 15 13 14 16 19 22 24 25 26 26 27 28 29 31 32 33 33 35 36 37 39 41 42 43 44 45 46 46 46 47 48 46 45 47 47 46 46
27 28 28 27 24 21 17 15 15 16 19 21 22 24 25 27 28 30 31 32 33 34 34 36 37 38 39 41 43 44 45 45 45 45 46 47 46 46 47 47 47 46
29 30 29 29 28 26 24 22 19 17 17 18 19 21 23 25 27 29 31 32 33 34 35 36 37 37 39 40 42 44 44 45 46 47 47 48 48 49 49 47 47 48
30 31 31 31 29 28 28 26 23 20 17 16 17 18 19 22 24 27 29 30 31 33 34 36 37 37 39 40 42 44 45 45 46 47 49 50 51 51 50 50 50 50
27 28 29 30 30 30 29 28 27 24 20 17 15 15 17 18 20 23 26 28 30 32 34 36 37 39 40 41 43 44 45 46 45 46 48 49 51 52 51 50 51 53
25 27 28 29 30 30 29 28 28 27 25 22 17 15 15 16 17 19 22 26 29 31 33 35 37 39 41 42 43 44 44 45 45 44 44 46 49 52 51 49 50 54
23 26 28 29 30 30 30 29 30 29 28 26 24 21 18 17 16 17 20 24 27 29 31 33 35 38 39 40 42 44 44 45 45 44 43 44 46 50 51 51 52 54
18 23 26 28 29 29 30 30 30 30 29 28 27 26 23 21 20 18 20 22 24 26 28 30 32 34 36 37 39 41 43 44 44 43 43 44 45 46 50 51 52 53
16 19 23 26 27 28 29 29 29 30 30 29 29 28 26 25 23 21 20 20 22 23 26 28 30 32 33 34 34 36 39 42 43 42 41 42 43 44 48 50 50 52
15 17 21 25 26 27 28 28 28 29 30 30 30 29 28 27 26 24 23 21 20 20 22 25 29 31 32 32 33 34 35 37 39 40 40 41 42 43 45 48 49 50
12 13 16 20 23 25 27 27 27 28 28 29 30 30 30 29 28 26 25 24 22 21 21 21 25 28 29 31 33 35 35 35 36 37 38 40 42 43 44 46 47 48
16 16 16 17 19 22 24 24 25 26 27 29 30 31 31 30 29 27 26 26 24 24 24 23 25 27 27 29 32 33 35 36 36 36 36 38 41 41 43 45 45 45
18 20 21 20 21 23 24 22 22 23 24 27 30 31 31 31 31 30 28 27 25 25 25 26 27 27 27 29 30 32 34 35 36 37 37 38 40 42 43 43 43 42
16 17 19 21 23 25 24 21 21 22 23 25 26 28 30 31 32 32 31 29 27 26 26 27 28 27 27 28 29 31 32 34 35 37 38 39 41 43 43 42 40 40
16 16 18 21 25 26 23 20 20 20 22 23 22 24 27 29 31 32 33 32 31 30 29 30 31 30 27 27 28 29 30 31 33 36 37 39 41 43 44 43 41 39
15 18 21 25 27 27 25 21 19 19 21 21 21 22 23 25 30 33 33 33 33 32 32 34 35 34 30 28 27 27 28 29 32 34 35 37 39 41 43 43 44 43
17 21 26 28 29 28 26 21 19 21 22 21 21 22 22 24 28 32 34 34 34 33 33 34 37 37 33 30 28 26 26 27 30 31 33 37 40 41 42 42 43 45
22 25 27 29 30 30 25 22 23 25 25 22 20 22 24 25 25 28 32 34 34 33 33 33 36 38 36 32 31 28 26 27 28 28 30 34 37 39 40 41 42 42
27 28 28 30 33 31 25 24 28 29 27 25 23 22 25 26 24 24 28 32 34 33 33 34 36 39 38 35 32 30 27 27 27 27 29 32 33 35 37 39 40 40
29 29 31 32 33 31 27 28 31 31 28 28 27 26 25 25 25 24 27 32 35 36 36 36 36 38 39 37 34 31 29 28 27 26 28 30 31 33 35 35 36 37
Wind_Direction
287 283 281 280 276 269 262 253 245 241 239 237 237 239 242 242 238 235 232 230 229 228 228 228 229 229 228 227 226 225 225 225 225 225 225 225 225 225 224 224 224 224
317 299 289 284 280 276 272 266 260 255 251 247 247 247 248 247 244 241 238 235 232 231 230 230 229 229 229 228 228 227 226 226 227 227 227 227 226 226 226 226 226 226
347 327 309 296 289 283 279 275 270 265 261 258 255 254 252 251 249 247 244 240 236 234 233 232 231 231 230 230 229 228 228 228 229 229 229 229 228 228 228 228 227 227
6 350 332 316 305 297 290 284 278 273 269 266 264 261 258 256 254 250 248 245 240 238 236 235 233 233 232 231 230 230 229 230 230 230 230 230 230 230 229 228 228 228
21 12 358 338 322 313 303 293 286 281 277 274 272 269 265 262 258 253 250 247 243 240 239 238 237 235 234 232 231 230 230 230 231 231 230 231 231 230 230 229 228 228
29 26 19 5 348 332 317 304 295 289 285 282 278 274 270 266 262 257 253 250 247 244 241 240 238 236 235 234 232 231 231 230 231 231 230 231 231 231 230 229 228 228
30 29 27 22 14 359 339 322 309 301 297 294 288 281 276 271 265 262 258 254 251 248 245 242 240 238 236 234 233 232 232 232 232 231 230 230 230 231 231 230 229 229
29 28 28 26 23 17 6 354 339 324 313 306 297 290 285 279 272 266 263 259 255 251 248 245 243 240 238 235 234 233 232 233 232 231 231 230 229 229 230 229 228 228
23 24 24 24 24 20 16 11 1 347 332 318 306 297 290 285 279 272 266 262 258 254 251 248 245 243 241 239 237 235 234 233 233 232 232 231 229 229 229 228 227 227
18 18 18 18 19 18 18 16 10 359 343 327 314 305 296 289 285 279 270 264 260 256 253 251 249 246 244 243 241 239 237 236 235 235 234 232 231 231 230 228 226 226
15 14 13 12 12 12 13 14 12 8 357 341 325 310 301 292 285 282 274 266 262 260 258 255 252 250 248 247 245 243 241 239 238 238 237 236 235 233 232 231 229 227
12 11 9 8 7 7 7 7 8 9 6 359 347 330 315 300 287 280 276 272 268 264 262 259 256 254 252 250 247 245 244 242 241 240 240 240 238 237 236 234 233 232
6 7 7 5 4 4 3 3 3 3 3 2 358 351 339 323 306 291 285 283 276 268 264 262 259 256 252 251 249 247 247 245 243 242 243 243 242 240 239 238 237 236
357 1 3 3 2 1 359 358 358 358 358 359 358 355 349 341 330 315 302 294 286 277 270 266 262 256 251 250 249 248 247 246 245 244 245 246 245 243 241 241 239 237
349 353 357 358 358 357 355 354 354 354 354 355 354 353 350 346 340 331 321 307 295 287 280 274 267 260 255 252 250 247 246 245 245 245 246 247 247 245 243 243 241 238
341 345 350 353 353 351 350 350 350 350 350 350 350 348 347 345 341 338 332 320 305 293 285 278 273 268 262 258 254 250 248 246 244 244 244 246 247 246 244 243 242 240
330 334 340 344 346 346 345 344 344 345 345 345 344 343 341 340 339 337 334 329 320 307 295 283 277 275 270 263 258 254 251 248 245 243 243 244 245 244 244 243 242 241
329 329 331 334 337 338 338 337 337 339 340 340 339 338 337 335 334 332 330 328 323 315 307 296 288 285 279 270 264 258 254 250 247 245 244 243 244 243 243 242 241 240
327 328 329 330 331 333 333 330 329 330 331 332 332 333 333 332 330 328 325 323 319 314 309 303 298 294 287 278 271 264 259 253 248 247 246 244 243 242 242 242 241 240
320 322 324 325 328 330 328 322 320 321 322 323 325 326 327 327 326 326 323 320 316 310 306 303 299 297 292 283 276 270 264 257 251 249 247 246 245 243 242 242 241 241
315 316 318 322 325 328 324 314 311 314 316 318 317 315 317 318 319 321 320 318 315 310 305 301 299 298 295 288 280 272 264 257 252 250 248 247 247 245 244 242 241 240
310 312 314 317 321 325 321 311 307 309 312 314 310 306 306 308 311 313 314 312 312 310 305 301 301 300 296 291 285 275 264 257 252 250 248 248 247 246 245 243 240 238
302 306 309 312 316 318 315 307 303 306 308 309 306 301 298 299 302 306 307 307 307 306 303 299 300 300 297 293 288 278 267 259 253 250 247 246 247 246 244 243 241 239
298 301 304 307 310 311 308 300 298 301 304 304 302 297 295 293 293 296 299 301 301 301 299 295 295 298 297 292 287 281 269 259 255 252 250 246 246 246 245 243 242 240
293 295 298 301 303 304 300 294 295 298 300 300 299 295 292 291 288 286 290 294 295 295 295 293 292 295 295 291 285 280 269 257 251 252 253 250 246 245 244 242 241 240
290 291 292 295 297 297 294 291 294 296 297 298 298 294 290 288 285 282 283 287 289 290 291 291 290 291 293 291 284 279 271 259 250 248 251 253 250 245 241 239 238 237